Varniai

Lithuania     55˚44′33″N   22˚22′16″E
temp.,
°C
wind,
m/s
gust,
m/s
humid.,
%
clouds,
%
prec.,
mm/h
press.,
hPa
HPBL,
m
1 december, tue
tue123:00ssw5998100 1.8 1020423
02:00ssw51097100 4.9 1021495
05:00ssw499395 0.6 1021444
08:00−3˚s389460 0.6 1023277
11:00−1˚s489336 0.0 1024507
14:00−1˚s468968 0.1 1025606
17:00−1˚sse3788100 0.0 1026539
20:00−1˚se3690100 0.1 1028306
2 december, wed
wed223:00−3˚sse269497 0.0 1029182
02:00−3˚sse269495 0.0 1030176
05:00−4˚se369418 0.0 1029165
08:00−4˚se379239 0.0 1030213
11:00−3˚sse378632 0.0 1029279
14:00−2˚se378221 0.0 1028342
17:00−4˚se49881 0.0 1026283
20:00−4˚se498820 0.0 1026274
3 december, thu
thu323:00−4˚se4109162 0.0 1024289
02:00−3˚se499568 0.0 1023367
05:00−3˚se4894100 0.0 1021372
08:00−3˚sse5895100 0.1 1020452
11:00−2˚sse5986100 0.1 1018649
14:00−1˚sse5108798 0.1 1017679
17:00−1˚se5118798 0.0 1016711
20:00−1˚se6149094 0.0 1015579
4 december, fri
fri423:00−1˚se71486100 0.0 1014596
02:00−1˚se71588100 0.0 1012584
05:00−1˚se71587100 0.0 1011603
08:00se81785100 0.0 1011567
11:00se81684100 0.0 1011559
14:00+2˚se81690100 0.0 1010708
17:00+3˚se81690100 0.0 1009882
20:00+3˚se81689100 0.0 1008893
5 december, sat
sat523:00+3˚se81689100 0.0 1007729
02:00+4˚se81790100 0.0 1008787
05:00+4˚sse81691100 0.0 1008821
08:00+5˚se71591100 0.0 1008717
11:00+5˚se8159099 0.0 1009758
14:00+6˚se7158899 0.0 1010779
17:00+6˚se71588100 0.0 1010703
20:00+6˚se71590100 0.0 1011692